Regional Weather Roundup
Issued by NWS Albany, NY

Home | Current Version | Previous Version | Text Only | Print | Product List | Glossary On
Versions: 1 2 3 4 5 6 7 8 9 10 11 12 13 14 15 16 17 18 19 20 21 22 23 24 25 26 27 28 29 30 31 32 33 34 35 36 37 38 39 40 41 42 43 44 45 46 47 48 49
000
ASUS41 KALY 191710
RWRALY

NEW YORK STATE HOURLY WEATHER ROUNDUP
NATIONAL WEATHER SERVICE ALBANY NY
100 PM EDT FRI SEP 19 2014

NOTE: "FAIR" INDICATES FEW OR NO CLOUDS BELOW 12,000 FEET WITH NO
SIGNIFICANT WEATHER AND/OR NO OBSTRUCTIONS TO VISIBILITY.

NYZ032-033-038>043-046>054-057>066-NYZ062>081-191800-
EAST


CITY           SKY/WX    TMP DP  RH WIND       PRES   REMARKS
ALBANY         MOSUNNY   56  34  43 VRB7      30.39F
GLENS FALLS    SUNNY     53  31  42 NE8       30.39S
POUGHKEEPSIE   SUNNY     61  39  44 CALM      30.35S
NEWBURGH       MOSUNNY   57  45  62 E12       30.37S
MONTGOMERY     SUNNY     60  40  47 VRB6      30.35S
WHITE PLAINS   MOSUNNY   60  38  43 E3        30.35R
ISLIP          MOSUNNY   63  42  46 N9G20     30.34R
NEW YORK CITY  MOSUNNY   61  44  53 NE16      30.35R
CENTRAL PARK   SUNNY     63  43  48 E9        30.38R
$$

NYZ005>009-017-018-044>046-055-056-191800-
CENTRAL


CITY           SKY/WX    TMP DP  RH WIND       PRES   REMARKS
FULTON         SUNNY     57  39  51 MISG      30.35F
SYRACUSE       MOSUNNY   58  39  49 MISG      30.36F
ROME           SUNNY     55  38  52 SE8       30.38F
ELMIRA         SUNNY     58  41  53 CALM      30.32F
BINGHAMTON     SUNNY     53  37  54 CALM      30.33F
MONTICELLO     SUNNY     55  39  54 E7        30.35S
$$

NYZ026>034-041>043-191800-
NORTH


CITY           SKY/WX    TMP DP  RH WIND       PRES   REMARKS
WATERTOWN      SUNNY     57  33  40 CALM      30.36F
FORT DRUM      NOT AVBL
MASSENA        SUNNY     54  33  45 E6        30.39F
SARANAC LAKE   SUNNY     50  26  39 E7        30.33S
PLATTSBURGH    SUNNY     52  25  35 S6        30.41F
$$

NYZ001>004-010>016-019>021-191800-
WEST


CITY           SKY/WX    TMP DP  RH WIND       PRES   REMARKS
NIAGARA FALLS  MOSUNNY   58  42  55 CALM      30.31S
BUFFALO        MOSUNNY   59  39  47 E8        30.30F
DUNKIRK        SUNNY     60  45  57 NW8       30.29F
JAMESTOWN      SUNNY     55  45  67 E3        30.28F
WELLSVILLE     SUNNY     57  42  57 S7        30.31F
ROCHESTER      MOSUNNY   58  40  51 E8        30.34F
PENN YAN       SUNNY     56  39  53 VRB5      30.34F
$$

             KEY
       WCI = WIND CHILL INDEX
       VSB = VISIBILITY
       HX  = HEAT INDEX
$$


USA.gov is the U.S. government's official web portal to all federal, state and local government web resources and services.